Regional Weather Roundup
Issued by NWS

Home | Current Version | Previous Version | Graphics & Text | Print | Product List | Glossary On
Versions: 1 2 3 4 5 6 7 8 9 10 11 12 13 14 15 16 17 18 19 20 21 22 23 24 25 26 27 28 29 30 31 32 33 34 35 36 37 38 39 40 41 42 43 44 45 46 47 48 49 50
000
ASUS43 KFSD 041302
RWRSD

WEATHER ROUNDUP FOR SOUTH DAKOTA
NATIONAL WEATHER SERVICE SIOUX FALLS SD
800 AM CDT FRI SEP 04 2015

NOTE: "FAIR" INDICATES FEW OR NO CLOUDS BELOW 12,000 FEET WITH NO
SIGNIFICANT WEATHER AND/OR OBSTRUCTIONS TO VISIBILITY.


SDZ001>005-009-010-012>017-041400-
NORTHWEST AND NORTH CENTRAL SOUTH DAKOTA

CITY           SKY/WX    TMP DP  RH WIND       PRES   REMARKS
BUFFALO          N/A     61  59  93 W8        29.76R
MOBRIDGE       LGT RAIN  73  73 100 S9        29.72R
$$

SDZ012>016-024>037-041>051-057-063-072>074-041400-
SOUTHWEST AND SOUTH CENTRAL SOUTH DAKOTA

CITY           SKY/WX    TMP DP  RH WIND       PRES   REMARKS
RAPID CTY ARPT MOCLDY    67  53  61 CALM      29.79S
PIERRE         CLOUDY    70  64  81 N9        29.69F
CUSTER         CLEAR     58  43  57 W5        29.95S
PHILIP         CLOUDY    68  61  78 CALM      29.76R
PINE RIDGE     CLEAR     60  54  80 NE6       29.84R
WINNER         FAIR      74  61  63 S9        29.78R
$$

SDZ004>011-016>023-039-040-041400-
NORTHEAST SOUTH DAKOTA

CITY           SKY/WX    TMP DP  RH WIND       PRES   REMARKS
ABERDEEN       CLOUDY    72  69  90 S16       29.76R
WATERTOWN      PTSUNNY   72  68  87 SE10      29.81R
BROOKINGS      PTSUNNY   72  66  83 S14       29.85R
$$

SDZ017-020-022-023-036>040-048>070-041400-
SOUTHEAST SOUTH DAKOTA

CITY           SKY/WX    TMP DP  RH WIND       PRES   REMARKS
SIOUX FALLS    CLOUDY    74  66  76 S10       29.85R
HURON          CLOUDY    73  68  84 E8        29.76R
CHAMBERLAIN    CLOUDY    69  65  86 SE13      29.77R
MITCHELL       CLOUDY    74  67  78 S14       29.80R
YANKTON        PTSUNNY   77  64  65 S9G16     29.81S
$$

ABBREVIATIONS USED IN REMARKS
   TC - TEMPERATURE IN CELSIUS
  WCI - WIND CHILL INDEX
   HX - HEAT INDEX
  VSB - VISIBILITY



USA.gov is the U.S. government's official web portal to all federal, state and local government web resources and services.